NOAA 16 DEB, 41496

Orbit data source: Space-Track

NOAA 16 DEB, 41496 is space debris in SSO originally from a launch on Thu, 21 Sep 2000 UTC launched from the Air Force Western Test Range (AFWTR). Debris objects in space refer to the collection of defunct objects orbiting the Earth. Examples of debris include non-operational satellites, rocket bodies, and fragments generated from explosions, collisions, or faulty payload assembly.

Loading next visibility...
Identifier
41496, 2000-055LU
Orbit
SSO
Country
Flag of USUS
Related business
Manufacturer
Unknown
Mission
Spacecraft
Bus & Motor
Unknown
Mass
Unknown
Launch date (UTC)
2000-09-21 (25 years ago)
Launch vehicle
Unknown
Launch site
Air Force Western Test Range (AFWTR)
Object type
Payload
Rocket body
Debris
Shape & HBR
Unknown shape, 0.1 m
Radar Cross Section
Small (<0.1 m²)

Expand to show TLE details & history
Last TLE update: 11 hours ago

TLE from 11 hours ago
0 NOAA 16 DEB
1 41496U 00055LU  25293.74237712  .00009776  00000-0  34204-2 0  9992
2 41496  98.7297  30.9813 0017871 181.0239 179.0912 14.35251857498933
Epoch: 2025-10-20T17:49Z
TLE epoch observation values (Epoch: 2025-10-20T17:49:01.383Z)
Latitude
-0.00002°
Longitude
94.28522°
Altitude
789.947 km
Speed
7.452 km/s
True Right ascension
02h 03m 55s
True Declination
0° 00' 00"
Sunlit
Object was in full shadow at epoch
Visualization orbit readout
Latitude
Unknown
Longitude
Unknown
Altitude
Unknown
Speed
Unknown
Apparent Right ascension
Unknown
Apparent Declination
Unknown
Sunlit
N/A
Visualization observer readout
Local Sidereal Time
00:12:04
Azimuth
Unknown
Elevation
Unknown
Doppler factor
Unknown
Orbital elements
Apogee altitude
784.146 km
Perigee altitude
758.592 km
Semi-major axis
7,149.506 km
Eccentricity
0.00179
Inclination
98.7297°
RAAN
30.9813°
Arg. of periapsis
181.0239°
True anomaly
179.09444°
Mean anomaly
179.0912°
Eccentric anomaly
179.09282°
Mean motion
3.59029 °/min
Orbital period
100.27 mins
BSTAR
0.0034204
Loading maneuver chart data...
Computing Atmospheric mass density...

Documentation

Showing up to 5 results
|